Tracking 17842 objects as of 29-August-2016
HD Live streaming from Space Station
objects crossing your sky now

COSMOS 2375 (GLONASS)

Track COSMOS 2375 (GLONASS) now!
COSMOS 2375 (GLONASS) is classified as:


NORAD ID: 26564
Int'l Code: 2000-063A
Perigee: 19,118.3 km
Apogee: 19,155.8 km
Inclination: 65.0 °
Period: 675.7 minutes
Semi major axis: 25508 km
RCS: 3.9905 m2 (large)
Launch date: October 13, 2000
Source: Commonwealth of Independent States (former USSR) (CIS)
Launch site: TYURATAM MISSILE AND SPACE COMPLEX (TTMTR)
SV:

Russia's version of the GPS system, functions the same; there has been cooperation between the two; much scaled-back constellation
Your satellite tracking list
Your tracking list is empty





NASA's NSSDC Master Catalog

Two Line Element Set (TLE):
1 26564U 00063A   16239.88523918  .00000014  00000-0  00000+0 0  9991
2 26564  65.0495  74.9505 0007355  53.2060 306.9291  2.13101656123506
Source of the keplerian elements: AFSPC

N2YO: 466